When you browse on this site, cookies collect data to enhance your experience and personalize the content and advertising you see.
Visit our Privacy Policy to learn more. By continuing to use the site, you agree to this use of cookies and data.
  • în România
  • Lista ţărilor
  • Pe 7 zile
  • Temperatura apei
  • Hartă satelitară
  • Meteo pe hartă
  • Widget-uri
  • user-avatar
    Intrare

    Meteo pe oră la Lincoln

    Astăzi, 20 Ianuarie, Duminică

    Timp Temperatura Precipitaţii Vânt Presiune Umiditate
    00:00 +1°C° 0 mm 2 m/s 754 mmHg 88%
    01:00 +2°C° 0 mm 1 m/s 754 mmHg 89%
    02:00 +1°C° 0 mm 1 m/s 754 mmHg 89%
    03:00 0°C° 0 mm 1 m/s 755 mmHg 90%
    04:00 +1°C° 0 mm 1 m/s 755 mmHg 89%
    05:00 0°C° 0 mm 0 m/s 755 mmHg 89%
    06:00 0°C° 0 mm 0 m/s 756 mmHg 89%
    07:00 0°C° 0 mm 0 m/s 756 mmHg 88%
    08:00 0°C° 0 mm 0 m/s 757 mmHg 87%
    09:00 0°C° 0 mm 0 m/s 757 mmHg 87%
    10:00 +2°C° 0 mm 1 m/s 758 mmHg 84%
    11:00 +3°C° 0 mm 1 m/s 758 mmHg 80%
    12:00 +4°C° 0 mm 1 m/s 759 mmHg 77%
    13:00 +4°C° 0 mm 1 m/s 759 mmHg 80%
    14:00 +4°C° 0 mm 1 m/s 759 mmHg 83%
    15:00 +4°C° 0 mm 1 m/s 759 mmHg 86%
    16:00 +3°C° 0 mm 1 m/s 760 mmHg 88%
    17:00 +2°C° 0 mm 1 m/s 760 mmHg 90%
    18:00 +2°C° 0 mm 1 m/s 761 mmHg 91%
    19:00 +2°C° 0 mm 1 m/s 761 mmHg 92%
    20:00 +2°C° 0 mm 1 m/s 762 mmHg 93%
    21:00 +1°C° 0 mm 2 m/s 762 mmHg 93%
    22:00 +1°C° 0 mm 2 m/s 762 mmHg 94%
    23:00 +1°C° 0 mm 2 m/s 763 mmHg 95%

    Mâine, 21 Ianuarie, Luni

    Timp Temperatura Precipitaţii Vânt Presiune Umiditate
    00:00 +1°C° 0 mm 2 m/s 763 mmHg 95%
    01:00 +1°C° 0 mm 2 m/s 763 mmHg 96%
    02:00 +1°C° 0 mm 2 m/s 763 mmHg 96%
    03:00 +1°C° 0 mm 2 m/s 763 mmHg 96%
    04:00 +1°C° 0 mm 2 m/s 763 mmHg 95%
    05:00 +1°C° 0 mm 2 m/s 763 mmHg 94%
    06:00 -1°C° 0 mm 2 m/s 762 mmHg 94%
    07:00 +1°C° 0 mm 1 m/s 762 mmHg 93%
    08:00 +2°C° 0 mm 1 m/s 762 mmHg 92%
    09:00 +2°C° 0 mm 1 m/s 762 mmHg 92%
    10:00 +3°C° 0 mm 1 m/s 762 mmHg 90%
    11:00 +3°C° 0 mm 2 m/s 761 mmHg 89%
    12:00 +2°C° 0 mm 3 m/s 760 mmHg 87%
    13:00 +3°C° 0 mm 3 m/s 759 mmHg 89%
    14:00 +3°C° 0 mm 3 m/s 759 mmHg 90%
    15:00 +3°C° 0 mm 4 m/s 758 mmHg 91%
    16:00 +1°C° 0 mm 4 m/s 757 mmHg 92%
    17:00 +1°C° 0 mm 5 m/s 756 mmHg 92%
    18:00 +1°C° 0 mm 6 m/s 755 mmHg 92%
    19:00 +1°C° 0.1 mm 6 m/s 753 mmHg 92%
    20:00 +1°C° 0.1 mm 6 m/s 752 mmHg 91%
    21:00 +2°C° 0.1 mm 7 m/s 750 mmHg 91%
    22:00 +1°C° 0.7 mm 8 m/s 749 mmHg 90%
    23:00 +1°C° 0.7 mm 8 m/s 747 mmHg 88%

    Poimâine, 22 Ianuarie, Marţi

    Timp Temperatura Precipitaţii Vânt Presiune Umiditate
    00:00 +1°C° 0.7 mm 9 m/s 746 mmHg 87%
    01:00 +2°C° 0.9 mm 7 m/s 745 mmHg 85%
    02:00 +1°C° 0.9 mm 6 m/s 745 mmHg 84%
    03:00 0°C° 0.9 mm 4 m/s 744 mmHg 82%
    04:00 -1°C° 0 mm 4 m/s 744 mmHg 83%
    05:00 -1°C° 0 mm 4 m/s 743 mmHg 83%
    06:00 -2°C° 0 mm 5 m/s 743 mmHg 83%
    07:00 -2°C° 0 mm 4 m/s 743 mmHg 83%
    08:00 -2°C° 0 mm 4 m/s 743 mmHg 83%
    09:00 -2°C° 0 mm 4 m/s 743 mmHg 83%
    10:00 -1°C° 0 mm 4 m/s 743 mmHg 80%
    11:00 0°C° 0 mm 5 m/s 743 mmHg 76%
    12:00 +1°C° 0 mm 5 m/s 743 mmHg 72%
    13:00 +1°C° 0.1 mm 5 m/s 743 mmHg 74%
    14:00 +1°C° 0.1 mm 4 m/s 743 mmHg 76%
    15:00 +1°C° 0.1 mm 4 m/s 743 mmHg 77%
    16:00 0°C° 0 mm 4 m/s 743 mmHg 79%
    17:00 0°C° 0 mm 3 m/s 743 mmHg 81%
    18:00 -1°C° 0 mm 3 m/s 743 mmHg 82%
    19:00 -1°C° 0 mm 3 m/s 744 mmHg 82%
    20:00 -2°C° 0 mm 3 m/s 744 mmHg 82%
    21:00 -2°C° 0 mm 3 m/s 745 mmHg 82%
    22:00 -2°C° 0 mm 3 m/s 745 mmHg 82%
    23:00 -2°C° 0 mm 3 m/s 745 mmHg 81%

    23 Ianuarie, Miercuri

    Timp Temperatura Precipitaţii Vânt Presiune Umiditate
    00:00 -2°C° 0 mm 3 m/s 745 mmHg 81%
    01:00 -4°C° 0 mm 3 m/s 745 mmHg 81%
    02:00 -4°C° 0 mm 3 m/s 745 mmHg 80%
    03:00 -3°C° 0 mm 2 m/s 745 mmHg 79%
    04:00 -3°C° 0 mm 2 m/s 746 mmHg 79%
    05:00 -3°C° 0 mm 2 m/s 746 mmHg 79%
    06:00 -3°C° 0 mm 2 m/s 746 mmHg 79%
    07:00 -2°C° 0 mm 2 m/s 747 mmHg 79%
    08:00 -2°C° 0 mm 2 m/s 747 mmHg 80%
    09:00 -2°C° 0 mm 2 m/s 748 mmHg 80%
    10:00 0°C° 0 mm 3 m/s 748 mmHg 73%
    11:00 +1°C° 0 mm 3 m/s 748 mmHg 66%
    12:00 +2°C° 0 mm 3 m/s 749 mmHg 59%
    13:00 +2°C° 0 mm 3 m/s 749 mmHg 62%
    14:00 +2°C° 0 mm 3 m/s 749 mmHg 65%
    15:00 +3°C° 0 mm 2 m/s 749 mmHg 68%
    16:00 +2°C° 0 mm 2 m/s 749 mmHg 73%
    17:00 +1°C° 0 mm 2 m/s 750 mmHg 79%
    18:00 -1°C° 0 mm 3 m/s 750 mmHg 84%
    19:00 -1°C° 0 mm 3 m/s 750 mmHg 84%
    20:00 -1°C° 0 mm 3 m/s 751 mmHg 85%
    21:00 -1°C° 0 mm 3 m/s 751 mmHg 85%
    22:00 -1°C° 0 mm 3 m/s 751 mmHg 84%
    23:00 -1°C° 0 mm 3 m/s 752 mmHg 84%

    24 Ianuarie, Joi

    Timp Temperatura Precipitaţii Vânt Presiune Umiditate
    00:00 -1°C° 0 mm 3 m/s 752 mmHg 83%
    01:00 -1°C° 0 mm 3 m/s 752 mmHg 83%
    02:00 -1°C° 0 mm 3 m/s 752 mmHg 83%
    03:00 -1°C° 0 mm 3 m/s 752 mmHg 83%
    04:00 -1°C° 0 mm 3 m/s 752 mmHg 84%
    05:00 -1°C° 0 mm 3 m/s 753 mmHg 85%
    06:00 -1°C° 0 mm 3 m/s 753 mmHg 87%
    07:00 -1°C° 0 mm 2 m/s 754 mmHg 86%
    08:00 -1°C° 0 mm 2 m/s 754 mmHg 86%
    09:00 -1°C° 0 mm 2 m/s 755 mmHg 86%
    10:00 +1°C° 0 mm 2 m/s 755 mmHg 83%
    11:00 +3°C° 0 mm 2 m/s 755 mmHg 79%
    12:00 +5°C° 0 mm 1 m/s 756 mmHg 76%
    13:00 +5°C° 0 mm 1 m/s 756 mmHg 78%
    14:00 +5°C° 0 mm 1 m/s 756 mmHg 80%
    15:00 +5°C° 0 mm 1 m/s 756 mmHg 82%
    16:00 +4°C° 0 mm 1 m/s 757 mmHg 84%
    17:00 +3°C° 0 mm 1 m/s 757 mmHg 86%
    18:00 +2°C° 0 mm 1 m/s 758 mmHg 88%
    19:00 +1°C° 0 mm 1 m/s 758 mmHg 89%
    20:00 -1°C° 0 mm 2 m/s 759 mmHg 90%
    21:00 -1°C° 0 mm 2 m/s 759 mmHg 91%
    22:00 -1°C° 0 mm 2 m/s 760 mmHg 91%
    23:00 -1°C° 0 mm 2 m/s 760 mmHg 92%

    25 Ianuarie, Vineri

    Timp Temperatura Precipitaţii Vânt Presiune Umiditate
    00:00 -1°C° 0 mm 3 m/s 760 mmHg 92%
    01:00 -1°C° 0 mm 3 m/s 760 mmHg 93%
    02:00 -1°C° 0 mm 3 m/s 760 mmHg 93%
    03:00 -1°C° 0 mm 3 m/s 760 mmHg 93%
    04:00 0°C° 0 mm 3 m/s 760 mmHg 92%
    05:00 0°C° 0 mm 3 m/s 760 mmHg 90%
    06:00 +1°C° 0 mm 3 m/s 760 mmHg 89%
    07:00 +1°C° 0 mm 3 m/s 760 mmHg 90%
    08:00 +2°C° 0 mm 3 m/s 760 mmHg 91%
    09:00 +2°C° 0 mm 3 m/s 760 mmHg 91%
    10:00 +3°C° 0 mm 3 m/s 760 mmHg 92%
    11:00 +3°C° 0 mm 3 m/s 760 mmHg 92%
    12:00 +4°C° 0 mm 3 m/s 760 mmHg 92%
    13:00 +5°C° 0 mm 2 m/s 760 mmHg 93%
    14:00 +6°C° 0 mm 2 m/s 760 mmHg 94%
    15:00 +6°C° 0 mm 2 m/s 760 mmHg 96%
    16:00 +5°C° 0 mm 2 m/s 760 mmHg 95%
    17:00 +3°C° 0 mm 3 m/s 760 mmHg 95%
    18:00 +3°C° 0 mm 3 m/s 760 mmHg 95%
    19:00 +2°C° 0 mm 3 m/s 760 mmHg 95%
    20:00 +2°C° 0 mm 3 m/s 759 mmHg 95%
    21:00 +2°C° 0 mm 3 m/s 759 mmHg 95%
    22:00 +2°C° 0 mm 3 m/s 759 mmHg 95%
    23:00 +1°C° 0 mm 4 m/s 759 mmHg 95%
    Arată mai mult